Location: *
(11.7485°N, 79.7483°E)
Time: 11:29:21
(UTC+00:00)

USA 238 - Pass Details

Date: 22 January 2021
Orbit: 996 x 1216 km, 63.4° (Epoch: 24 February)

Event Time Altitude Azimuth Distance (km) Brightness Sun altitude
Rises 00:21:53 0° 217° (SW) 3,709 6.3 -11.0°
Reaches altitude 10° 00:24:34 10° 223° (SW) 2,754 5.6 -10.4°
Maximum altitude 00:30:41 46° 295° (WNW) 1,310 3.8 -9.0°
Drops below altitude 10° 00:36:55 10° 8° (N) 2,797 5.8 -7.5°
Sets 00:39:41 0° 14° (NNE) 3,772 6.5 -6.9°
